Regional Weather Roundup
Issued by NWS State College, PA

Home | Current Version | Previous Version | Text Only | Print | Product List | Glossary On
Versions: 1 2 3 4 5 6 7 8 9 10 11 12 13 14 15 16 17 18 19 20 21 22 23 24 25 26 27 28 29 30 31 32 33 34 35 36 37 38 39 40 41 42 43 44 45 46 47 48 49 50
000
ASUS41 KCTP 172303
RWRCTP
REGIONAL WEATHER ROUNDUP
NATIONAL WEATHER SERVICE STATE COLLEGE PA
600 PM EST WED JAN 17 2018

Note: "fair" indicates few or no clouds below 12,000 feet with no
significant weather and/or obstructions to visibility.

* = STATION THAT DOES NOT REPORT PRECIPITATION /E.G. RAIN...SNOW...ETC/
    THUNDER OR FOG.

PAZ002>004-007>009-013>016-020>023-029>032-180000-
WESTERN PENNSYLVANIA

CITY           SKY/WX    TMP DP  RH WIND       PRES   REMARKS
ERIE           FAIR      16   8  71 S14       30.32F WCI   2
MEADVILLE      FAIR      11   6  81 SW8       30.29F WCI  -1
FRANKLIN*      FAIR       8   5  87 SW9       30.30F WCI  -5
NEW CASTLE     FAIR       9   4  80 SW7       30.37F WCI  -2
BEAVER COUNTY  CLEAR     10   5  79 W7        30.37S WCI   0
BUTLER*        FLURRIES   9   5  84 SW7       30.36S WCI  -2
PITTSBURGH INT FAIR      11   4  73 W6        30.37S WCI   1
PITTSBURGH     CLOUDY    11   3  70 SW12      30.37R WCI  -3
INDIANA*       CLOUDY    14   9  79 NW6       30.36S HAZE    WCI   5
LATROBE        CLOUDY    12   5  73 SW9       30.38R WCI   0
WASHINGTON CO* FAIR      10   3  73 W5        30.42S WCI   2
$$

PAZ004>006-010>012-017>019-024>028-033>037-041-042-045-046-049>053-180000-
CENTRAL PENNSYLVANIA

CITY           SKY/WX    TMP DP  RH WIND       PRES   REMARKS
BRADFORD       FAIR      11   5  77 W5        30.19F WCI   3
DUBOIS         CLOUDY    10   4  76 W8        30.25F WCI  -2
CLEARFIELD     CLOUDY    13   5  70 W12G18    30.28S WCI  -1
JOHNSTOWN      LGT SNOW   9   5  84 W12       30.22S FOG     WCI  -6
ALTOONA        CLOUDY    13   5  70 NW14      30.28S WCI  -2
STATE COLLEGE  PTCLDY    14   5  67 W17       30.28R WCI  -3
WILLIAMSPORT   FAIR      20   9  62 W8        30.27S WCI  10
SELINSGROVE    FAIR      27   7  42 W6        30.30R
FT INDIANTOWN  PTCLDY    20   7  56 W6        30.28R WCI  13
CAPITAL CITY   FAIR      21   7  54 NW7       30.30R WCI  12
HARRISBURG     FAIR      20   8  60 NW9       30.30R WCI   9
YORK           FAIR      17   6  62 NW8       30.29S WCI   7
$$

PAZ038>040-043-044-047-048-054-055-060>062-067>071-180000-
EASTERN PENNSYLVANIA

CITY           SKY/WX    TMP DP  RH WIND       PRES   REMARKS
SCRANTON       FAIR      15   6  67 N7        30.21F WCI   5
MOUNT POCONO   FAIR      12   6  77 NW15      30.11R WCI  -4
ALLENTOWN      FAIR      21   6  52 NW8       30.24R WCI  11
QUAKERTOWN*    FAIR      21  10  63 MISG      30.24R
READING        FAIR      21  11  65 W8        30.27R WCI  11
LANCASTER      FAIR      18   8  65 W6        30.27S WCI  10
COATESVILLE    FAIR      19   9  63 NW12      30.25S WCI   7
POTTSTOWN      FAIR      20   9  62 NW7       30.26S WCI  11
BLUE BELL      FAIR      23  12  63 NW6       30.24F
DOYLESTOWN     FAIR      23  10  57 NW8       30.21S WCI  14
WILLOW GROVE   NOT AVBL
NORTH PHILA    FAIR      27  14  58 NW12      30.25S
PHILADELPHIA   MOCLDY    25  10  53 NW10      30.25S WCI  15
$$



USA.gov is the U.S. government's official web portal to all federal, state and local government web resources and services.